This demonstration page uses our WeatherBlox Daily Observations layout. Learn more.

Left ArrowRight Arrow

38.83388, -104.82136

Hourly Observations for May 23, 2018

Temp ( °F °C ) Dew Point ( °F °C ) Humidity (%) Winds ( mph kmh ) Pressure ( in mb ) Visibility ( mi km ) Precip ( " mm )
12:58 am 00:58 Clear 58 14.5 42 5.5 55 55 NW 17 28 29.47 998 10 16 0.00 0.00
1:58 am 01:58 Clear 57 14 42 5.3 56 56 NNW 10 17 29.50 999 10 16 0.00 0.00
2:58 am 02:58 Clear 57 13.9 41 5.2 56 56 NW 10 17 29.52 1000 10 16 0.00 0.00
3:58 am 03:58 Clear 57 14 41 5.1 55 55 NNW 12 19 29.50 999 10 16 0.00 0.00
4:58 am 04:58 Clear 55 13 41 5.1 59 59 NW 9 15 29.55 1001 10 16 0.00 0.00
5:58 am 05:58 Sunny 55 12.7 42 5.3 61 61 NW 14 22 29.56 1001 10 16 0.00 0.00
6:58 am 06:58 Sunny 57 13.8 40 4.5 54 54 Calm 29.56 1001 10 16 0.00 0.00
7:58 am 07:58 Sunny 58 14.5 44 6.5 59 59 ESE 3 6 29.57 1001 10 16 0.00 0.00
8:58 am 08:58 Sunny 61 15.9 43 6.2 53 53 E 5 7 29.59 1002 10 16 0.00 0.00
9:58 am 09:58 Sunny 67 19.3 40 4.4 38 38 SE 12 19 29.57 1001 10 16 0.00 0.00
10:58 am 10:58 Sunny 69 20.6 39 4 34 34 SSE 14 22 29.56 1001 10 16 0.00 0.00
11:58 am 11:58 Mostly Cloudy 72 22.2 30 -1.2 21 21 SSE 25 41 29.52 1000 10 16 0.00 0.00
12:05 pm 12:05 Mostly Cloudy 72 22 28 -2 20 20 S 15 24 29.52 1000 10 16 0.00 0.00
12:58 pm 12:58 Partly Cloudy 71 21.9 31 -0.6 22 22 SSE 21 33 29.52 1000 10 16 0.00 0.00
1:58 pm 13:58 Partly Cloudy 72 22.3 28 -2.3 19 19 SE 22 35 29.50 999 10 16 0.00 0.00
2:58 pm 14:58 Partly Cloudy 73 22.8 27 -2.7 18 18 SSE 18 30 29.49 999 10 16 0.00 0.00
3:02 pm 15:02 Partly Cloudy 73 23 27 -3 17 17 S 13 20 29.50 999 10 16 0.00 0.00
3:58 pm 15:58 Partly Cloudy 73 23 19 -7.2 13 13 SSE 6 9 29.47 998 10 16 0.00 0.00
4:58 pm 16:58 Partly Cloudy 75 23.7 20 -6.9 12 12 SE 16 26 29.45 997 10 16 0.00 0.00
5:58 pm 17:58 Mostly Cloudy 72 22.3 35 1.7 26 26 SSE 16 26 29.48 998 10 16 0.00 0.00
6:58 pm 18:58 Mostly Cloudy 71 21.4 39 4 32 32 S 12 19 29.47 998 10 16 0.00 0.00
7:58 pm 19:58 Sunny 68 20 42 5.5 39 39 Calm 29.50 999 10 16 0.00 0.00
8:58 pm 20:58 Clear 67 19.2 41 5.1 40 40 SW 10 17 29.50 999 10 16 0.00 0.00
9:58 pm 21:58 Clear 68 19.9 17 -8.4 14 14 W 6 9 29.49 999 10 16 0.00 0.00
10:19 pm 22:19 Clear 66 19 21 -6 18 18 NW 12 19 29.52 1000 10 16 0.00 0.00
10:58 pm 22:58 Clear 65 18.1 40 4.2 40 40 WNW 14 22 29.53 1000 10 16 0.00 0.00
11:58 pm 23:58 Clear 65 18.2 27 -3 24 24 WNW 12 19 29.54 1000 10 16 0.00 0.00

Powered by AerisWeather